Location: Ciserano
(45.5833°N, 9.6000°E)
Time: 23:39:12
(UTC+00:00)

FALCON 9 DEB - Pass Details

Date: 17 June 2021
Orbit: 364 x 377 km, 53.0° (Epoch: 26 July)

Event Time Altitude Azimuth Distance (km) Brightness Sun altitude
Rises 00:48:46 0° 290° (WNW) 2,269 6.8 -18.3°
Reaches altitude 10° 00:51:10 10° 307° (NW) 1,415 5.9 -18.1°
Maximum altitude 00:53:38 20° 359° (N) 951 5.6 -18.0°
Drops below altitude 10° 00:56:06 10° 50° (NE) 1,412 6.7 -17.8°
Sets 00:58:30 0° 68° (ENE) 2,264 7.5 -17.7°
